User: anonymous   Login
Location: La Vergne
(36.0160°N, 86.5820°W)
Time: 17:29:17
(UTC-06:00)
Language:

Cosmos 1703 Rocket - Orbit

View from above orbital plane
View from above orbital plane
View from above satellite
View from above satellite

Ground track
Ground track

The orbit data is extracted from the following two-line orbital elements,

1 16263U 85108B   14355.24580128  .00000820  00000-0  98516-4 0  8518
2 16263 082.5043 246.8318 0021883 101.2739 018.6142 14.82598317569683
Epoch (UTC): 21 December 2014 05:53:57
Eccentricity: 0.0021883
inclination: 82.5043°
perigee height: 606 km
apogee height: 636 km
right ascension of ascending node: 246.8318°
argument of perigee: 101.2739°
revolutions per day: 14.82598317
mean anomaly at epoch: 18.6142°
orbit number at epoch: 56968

The dashed part of the orbit path shows where the satellite is in the earth's shadow,  

DLR